Location: Córrego Montividiu
(13.2496°S, 48.8603°W)
Time: 12:03:59
(UTC+00:00)

CZ-2D R/B - Pass Details

Date: 11 March 2026
Orbit: 524 x 594 km, 98.0° (Epoch: 22 April)

Event Time Altitude Azimuth Distance (km) Brightness Sun altitude
Rises 22:01:54 0° 155° (SSE) 2,740 6.7 -8.1°
Reaches altitude 10° 22:04:09 10° 146° (SE) 1,852 5.7 -8.6°
Maximum altitude 22:07:50 35° 79° (E) 922 3.9 -9.5°
Drops below altitude 10° 22:11:33 10° 13° (NNE) 1,874 5.8 -10.4°
Sets 22:13:50 0° 4° (N) 2,777 6.8 -11.0°
